Columbia Gorge Regional the Dalles Municipal Airport
KDLS : now visible

Airfield :











YOU CAN JOIN US ON...

 
LOGIN :

Register | Disclaimer

   EN    FR    IT 

 









Legend :    VFR   Marginal VFR   IFR   Intensive IFR   Very Intensive IFR
Visi :
Ceiling :
>= 8 km
>= 3000ft
5 to 8 km
1000 to 3000 ft
1500m to 5 km
500 to 1000 ft
800 to 1500m
200 to 500 ft
< 800m
< 200 ft
Symbols :   Thunderstorms  Fog  Heavy snow  Heavy precipitations  Wind > 20 kt






- Airport Elevation : 247 ft


KDLS - Columbia Gorge Regional the Dalles Municipal

CURRENT METAR :
  • 270853Z AUTO 00000KT CLR 09/07 A3019 RMK AO2 SLP223 T00890067 58002 $

EXPIRED METARs :
  • 270753Z AUTO 00000KT FEW009 09/07 A3020 RMK AO2 SLP228 T00940067 401500072 $
  • 270741Z AUTO 00000KT SCT009 08/07 A3020 RMK AO2 T00830067 $
  • 270653Z AUTO 00000KT CLR 10/07 A3022 RMK AO2 SLP232 T01000072 $

TAF KDLS
Valid from the 27 at 06:00 until the 28 at 06:00 UTC


270520Z 2706/2806 VRB03KT P6SM SCT030 BKN100
FM271300 VRB03KT P6SM BKN030 OVC100
FM272100 VRB03KT P6SM -RA BKN020 OVC050
KZSE FIR / North America



MET'MAP, your aeronautical weather chart ! - Copyright ORBIFLY December 2007 - Disclaimer

ORBIFLY MET'MAP TEAM :

Programming & Development : Alexandra Zaïnal
Concept & original design : Baudouin d'Aumeries
Assistance for programming : Marc-Olivier Méhu
Technical & hardware support : Manuel Goepfert

Contact : metmap@orbifly.com




SOURCES & CREDITS :

   NOAA       Earth
Advisory